Weather History for Veracruz Airport, Mexico

Change the Weather History Date:

Tuesday, November 6, 2012

  Actual Average Record
Temperature  
Mean Temperature 75 °F -  
Max Temperature 82 °F 81 °F 95 °F (2000)
Min Temperature 68 °F 65 °F 53 °F (2010)
Cooling Degree Days 10    
Growing Degree Days 25 (Base 50)    
Moisture  
Dew Point 69 °F    
Average Humidity 80    
Maximum Humidity 94    
Minimum Humidity 65    
Precipitation  
Precipitation 0.00 in - - ()
Sea Level Pressure  
Sea Level Pressure 30.05 in    
Wind  
Wind Speed 4 mph ()    
Max Wind Speed 10 mph    
Max Gust Speed -    
Visibility 6.7 miles    
Events Rain    
Averages and records for this station are not official NWS values.
T = Trace of Precipitation, MM = Missing Value Source: Averaged Metar Reports

Daily Weather History Graph

Daily Weather History Graph

Search for Another Location

Airport:

Trip Planner

Search our weather history database for the weather conditions in past years. The results will help you decide how hot, cold, wet, or windy it might be!

Date:

Astronomy

Nov. 06, 2012 Rise Set
Actual Time 6:27 AM CST 5:48 PM CST
Civil Twilight 6:05 AM CST 6:11 PM CST
Nautical Twilight 5:38 AM CST 6:37 PM CST
Astronomical Twilight 5:12 AM CST 7:03 PM CST
Moon No Moon Rise 12:27 PM CST (11/6)
Length of Visible Light 12h 06m
Length of Day
11h 20m
Waning Gibbous, 53% of the Moon is Illuminated
Nov 6
Waning Gibbous
Nov 6
Last Quarter
Nov 13
New
Nov 20
First Quarter
Nov 28
Full

Hourly Weather History & Observations

Time (CST) Temp. Heat Index Dew Point Humidity Pressure Visibility Wind Dir Wind Speed Gust Speed Precip Events Conditions
5:13 AM 69.8 °F - 66.2 °F 88% 30.01 in 7.0 mi NW 5.8 mph - N/A   Mostly Cloudy
5:40 AM 69.8 °F - 66.2 °F 88% 29.99 in 7.0 mi WNW 3.5 mph - N/A   Mostly Cloudy
6:45 AM 68.0 °F - 66.2 °F 94% 30.04 in 7.0 mi WNW 3.5 mph - N/A   Scattered Clouds
7:48 AM 69.8 °F - 66.2 °F 88% 30.07 in 7.0 mi WNW 3.5 mph - N/A   Scattered Clouds
8:50 AM 78.8 °F - 68.0 °F 69% 30.05 in 7.0 mi NNW 4.6 mph - N/A   Mostly Cloudy
9:41 AM 80.6 °F 83.2 °F 68.0 °F 65% 30.10 in 7.0 mi NNW 6.9 mph - N/A   Mostly Cloudy
10:47 AM 82.4 °F 86.3 °F 69.8 °F 66% 30.09 in 7.0 mi NNW 5.8 mph - N/A   Mostly Cloudy
11:45 AM 82.4 °F 86.3 °F 69.8 °F 66% 30.03 in 7.0 mi NE 9.2 mph - N/A   Mostly Cloudy
12:41 PM 82.4 °F 86.3 °F 69.8 °F 66% 30.04 in 7.0 mi ENE 10.4 mph - N/A   Mostly Cloudy
1:42 PM 80.6 °F 84.6 °F 71.6 °F 74% 30.02 in 7.0 mi ENE 6.9 mph - N/A   Mostly Cloudy
2:45 PM 82.4 °F 87.2 °F 71.6 °F 70% 29.97 in 7.0 mi NE 10.4 mph - N/A   Mostly Cloudy
3:42 PM 80.6 °F 84.6 °F 71.6 °F 74% 30.01 in 7.0 mi North 8.1 mph - N/A   Mostly Cloudy
4:47 PM 78.8 °F - 68.0 °F 69% 30.02 in 7.0 mi East 3.5 mph - N/A   Scattered Clouds
5:43 PM 77.0 °F - 69.8 °F 78% 30.00 in 7.0 mi Calm Calm - N/A   Scattered Clouds
6:42 PM 75.2 °F - 68.0 °F 78% 30.06 in 7.0 mi Calm Calm - N/A   Mostly Cloudy
7:41 PM 73.4 °F - 69.8 °F 88% 30.08 in 6.0 mi WNW 3.5 mph - N/A   Mostly Cloudy
8:42 PM 71.6 °F - 69.8 °F 94% 30.07 in 6.0 mi WSW 3.5 mph - N/A   Scattered Clouds
9:44 PM 71.6 °F - 69.8 °F 94% 30.11 in 6.0 mi NW 3.5 mph - N/A   Partly Cloudy
10:46 PM 71.6 °F - 69.8 °F 94% 30.11 in 6.0 mi WNW 3.5 mph - N/A   Mostly Cloudy
10:57 PM 71.6 °F - 69.8 °F 94% 30.11 in 6.0 mi ESE 3.5 mph - N/A Rain Light Rain